RH
75 73 70 64 56 49 48 49 50 51 51 51 50 48 46 46 45 44 44 46 47 45 44 42 39 37 35 33 30 30 30 29 28 28 27 26 25 25 25 25 25 26 26 26 26 26 26 26 25 25 25 25
70 68 62 57 52 49 49 49 51 52 52 51 50 47 43 41 40 39 39 40 38 37 36 35 35 33 33 32 30 29 28 28 28 27 27 26 26 26 26 26 27 27 27 27 27 27 27 26 26 25 25 25
68 65 59 56 56 54 53 52 54 55 54 52 49 46 41 38 36 35 35 35 35 34 33 33 32 32 33 33 31 29 28 28 28 28 28 28 28 27 28 28 27 27 26 26 25 25 24 23 22 21 21 20
66 64 59 57 57 56 55 55 56 57 56 54 51 47 42 38 35 35 34 35 35 34 34 34 33 33 32 34 33 30 29 30 30 30 30 29 28 27 26 25 24 23 21 20 19 18 17 16 15 15 14 14
66 63 59 57 57 55 55 55 55 54 54 53 51 48 44 39 37 37 36 36 36 36 35 35 34 33 33 34 33 30 30 30 29 28 27 25 23 21 20 18 17 16 15 15 14 13 13 12 11 11 11 10
70 68 65 63 62 59 57 55 54 52 52 52 51 49 46 42 38 37 37 37 37 37 37 35 35 33 32 31 29 28 27 26 24 22 20 18 16 15 15 14 13 13 13 12 12 12 11 11 11 10 10 10
69 68 66 65 63 61 59 57 55 53 53 52 51 50 48 44 40 39 39 39 38 37 36 34 32 30 28 26 24 23 22 20 19 17 16 14 14 13 13 13 12 12 12 11 11 11 11 11 10 10 10 10
63 63 62 60 59 59 58 57 56 55 54 53 52 51 51 47 42 41 40 39 37 35 33 31 29 27 25 23 22 21 20 19 17 16 15 14 14 13 12 12 12 12 11 11 11 11 11 11 10 10 10 10
62 61 60 59 58 57 57 56 56 55 54 53 53 52 53 49 44 42 40 37 33 30 28 27 26 25 24 23 22 21 20 18 17 16 15 14 13 13 12 12 12 11 12 11 11 11 11 11 11 11 11 10
62 61 60 59 58 58 57 56 56 56 56 55 54 54 54 50 44 41 38 34 30 27 26 25 25 24 24 23 22 20 18 17 16 15 14 13 13 13 12 12 12 12 12 12 11 11 11 11 10 10 10 9
62 61 60 59 58 58 57 57 58 58 58 57 57 57 56 50 45 41 37 33 29 27 26 24 24 23 22 21 20 18 16 15 15 14 13 13 13 13 12 12 12 11 11 11 10 10 9 9 8 8 8 7
62 61 61 60 60 60 61 62 62 62 61 60 60 58 55 49 44 40 35 31 29 26 25 23 22 21 20 19 18 16 16 15 14 14 13 12 12 12 11 10 10 9 9 8 8 7 7 7 6 6 6 6
64 64 64 64 64 65 66 66 65 64 63 61 59 56 51 47 42 37 33 31 29 26 24 22 21 20 20 18 17 16 15 14 13 12 12 11 10 10 9 8 8 7 7 6 6 6 6 6 6 6 6 6
69 69 69 69 68 68 67 65 64 63 60 58 56 53 49 46 41 37 34 32 29 26 24 22 21 20 19 18 16 14 13 12 11 10 9 9 8 8 7 7 6 6 6 6 6 6 6 6 6 6 6 6
72 71 71 70 69 67 64 62 59 58 57 56 54 51 49 46 41 37 33 31 29 26 23 21 19 17 16 14 12 11 9 8 8 7 7 7 7 7 6 6 6 6 6 6 6 6 6 6 6 6 6 6
69 68 67 66 64 62 60 58 56 55 55 54 53 50 47 43 39 34 31 28 25 22 19 17 15 12 11 10 9 7 7 6 6 6 6 6 6 6 6 6 6 6 6 6 6 6 6 7 7 7 7 7
66 65 64 63 61 60 57 55 54 54 53 51 49 46 43 39 34 30 26 23 20 18 16 13 11 10 8 7 7 7 6 6 6 7 6 6 6 6 6 6 6 6 6 7 7 7 7 8 8 8 8 8
58 58 58 58 58 57 54 52 51 49 47 46 43 40 37 32 29 25 22 20 18 15 13 12 11 9 9 8 7 7 7 7 7 7 7 6 6 6 7 7 7 7 7 8 8 8 9 9 9 9 9 9
46 46 47 47 47 47 45 44 42 41 40 38 36 33 30 26 23 22 20 18 17 16 14 13 11 10 10 9 9 9 8 8 8 7 7 7 7 7 7 7 8 8 8 9 9 9 9 10 10 10 10 10
39 39 39 39 38 37 37 36 35 35 34 32 31 29 26 23 22 20 19 19 18 17 16 15 13 12 12 11 11 10 10 9 9 8 7 7 7 7 8 9 9 10 10 10 10 11 11 11 11 11 11 11
37 37 36 36 36 35 35 34 34 33 32 31 29 27 24 22 21 21 21 20 19 18 18 17 16 15 14 13 13 12 11 11 10 9 8 8 8 9 10 10 11 11 11 12 12 12 12 12 13 13 13 13
36 36 36 36 35 35 35 35 35 35 33 31 29 26 23 22 22 22 22 21 21 21 20 20 20 18 17 16 15 14 13 12 12 11 10 10 10 11 12 12 12 12 13 13 13 13 13 14 14 14 14 14
33 34 34 33 34 34 35 35 35 34 33 31 29 26 23 23 23 23 23 23 23 23 23 23 22 21 20 18 17 16 16 15 13 13 12 12 12 12 13 13 13 14 14 14 14 15 15 15 15 15 15 16
31 31 31 31 32 32 32 34 34 34 33 31 29 26 25 24 25 24 25 25 26 26 26 25 25 24 23 22 21 19 18 17 16 15 15 15 15 15 15 15 15 16 16 16 16 17 17 17 17 17 17 18
29 30 30 30 31 31 32 34 35 34 33 30 29 28 26 26 26 26 27 27 28 28 28 27 27 26 26 25 23 21 20 19 19 20 20 20 19 18 17 17 17 18 17 18 18 18 18 18 18 19 19 19
29 29 29 29 30 31 33 35 35 34 32 30 29 29 28 28 28 28 29 29 29 29 29 29 28 28 27 26 25 24 24 24 24 25 24 23 22 20 19 18 18 19 19 18 18 18 18 19 19 20 20 20
28 28 29 29 30 32 34 35 34 33 32 30 29 29 29 28 29 30 30 31 30 30 30 30 30 30 30 30 29 29 29 29 28 27 26 25 23 22 20 20 19 19 20 19 20 20 20 21 21 21 21 22
27 29 30 30 31 32 33 33 33 32 31 30 29 29 29 30 31 31 32 32 32 31 31 31 32 32 32 32 33 33 32 32 31 29 28 27 26 25 24 22 21 20 21 21 21 22 22 23 24 24 24 24
29 31 33 32 32 32 33 33 32 31 30 30 30 30 31 32 32 33 33 33 33 33 33 33 33 33 34 34 35 35 35 34 33 32 31 30 29 28 27 25 24 22 22 22 23 23 23 24 25 25 25 25
30 33 34 34 34 33 33 32 32 32 32 32 32 32 33 34 35 34 34 35 35 34 35 35 35 35 35 36 36 36 36 36 35 34 33 32 31 30 30 29 28 26 25 25 25 25 26 26 26 27 27 27
29 32 34 35 35 34 34 34 34 34 34 34 34 34 35 36 36 36 36 36 36 36 36 37 37 37 37 37 37 37 37 37 36 36 35 34 34 33 33 33 32 31 29 28 27 27 28 28 28 28 28 29